Regional Weather Roundup
Issued by NWS Glasgow, MT

Home | Current Version | Previous Version | Text Only | Print | Product List | Glossary On
Versions: 1 2 3 4 5 6 7 8 9 10 11 12 13 14 15 16 17 18 19 20 21 22 23 24 25 26 27 28 29 30 31 32 33 34 35 36 37 38 39 40 41 42 43 44 45 46 47 48 49 50
000
ASUS45 KGGW 011315
RWRGGW
HOURLY WEATHER ROUNDUP FOR NORTHEAST MONTANA
NATIONAL WEATHER SERVICE GLASGOW MONTANA
700 AM MDT MON SEP 01 2014

NOTE: "FAIR" INDICATES FEW OR NO CLOUDS BELOW 12,000 FEET WITH NO
SIGNIFICANT WEATHER AND/OR OBSTRUCTIONS TO VISISBILITY.

NORTHEAST MONTANA


CITY           SKY/WX    TMP DP  RH WIND       PRES   REMARKS
GLASGOW        PTCLDY    49  47  93 CALM      29.86R
PLENTYWOOD       N/A     48  46  93 W5          N/A
WOLF POINT     CLEAR     49  46  90 SW6       29.87R
JORDAN           N/A     50  47  89 CALM      29.88R
WINNETT          N/A     47  41  80 SW3         N/A
SIDNEY         PTCLDY    46  45  93 CALM      29.87R
GLENDIVE       CLOUDY    52  48  87 W7        29.89R
MALTA            N/A     50  47  89 SW5         N/A

FORT PECK REPORTS


CITY           SKY/WX    TMP DP  RH WIND       PRES   REMARKS
FORT PECK        N/A     52  48  86 NW6         N/A
THE PINES        N/A     55  44  66 W3          N/A

SOUTHEAST MONTANA


CITY           SKY/WX    TMP DP  RH WIND       PRES   REMARKS
BILLINGS       MOCLDY    53  47  79 SW14      29.98R
MILES CITY     MOCLDY    53  45  74 W10       29.89R
BAKER          PTCLDY    51  46  83 W9        29.89R
LIVINGSTON     CLOUDY    49  45  86 W8        30.02R

CENTRAL MONTANA


CITY           SKY/WX    TMP DP  RH WIND       PRES   REMARKS
HAVRE          MOCLDY    50  43  77 SW5       29.90R
LEWISTOWN      PTCLDY    48  37  65 SW5       29.97R
GREAT FALLS    MOCLDY    49  39  68 SW8       29.96R
CUT BANK       PTCLDY    50  39  66 W12       29.94R
HELENA         PTCLDY    52  38  58 W5        30.01R
BUTTE          MOCLDY    39  36  89 SE5       30.09R
BOZEMAN        CLOUDY    50  46  86 CALM      30.04S

WESTERN MONTANA


CITY           SKY/WX    TMP DP  RH WIND       PRES   REMARKS
MISSOULA       PTCLDY    42  40  92 CALM      30.07R
KALISPELL      NOT AVBL

NORTH DAKOTA


CITY           SKY/WX    TMP DP  RH WIND       PRES   REMARKS
WILLISTON      CLEAR     49  46  90 NW5       29.83R
DICKINSON      CLEAR     50  46  86 W12       29.81R
MINOT          CLOUDY    53  49  86 W16       29.76R
BISMARCK       CLEAR     52  50  93 W9        29.79R

SOUTHERN SASKATCHEWAN


CITY           SKY/WX    TMP DP  RH WIND       PRES   REMARKS
REGINA         CLEAR     46  45  93 W5        29.80
ESTEVAN        PTCLDY    50  48  93 W6        29.80R
SWIFT CURRENT  CLEAR     46  43  87 W12       29.84R




USA.gov is the U.S. government's official web portal to all federal, state and local government web resources and services.